Temperature
19 19 19 19 23 24 23 23 23 23 22 21 21 22 22 21 21 19 17 17 17 17 17 17 17 17 17 17 17 17 17 17 17 17 17 17 17 17 17 17 17 17 17 17 17 17 17 17 17
19 20 19 21 24 24 23 23 22 22 21 21 21 21 21 19 18 17 17 16 17 17 17 17 17 17 17 17 17 17 17 17 17 17 17 17 17 16 16 16 17 17 17 17 17 17 17 17 17
20 20 21 23 24 24 23 22 22 21 21 21 21 20 20 18 18 17 17 17 17 16 16 17 17 17 17 17 17 17 17 17 17 17 17 16 16 16 16 16 16 17 17 17 17 17 17 17 17
19 20 22 24 23 22 22 22 22 22 21 21 21 20 18 17 17 17 17 17 17 16 16 17 17 17 17 17 17 17 17 17 16 16 16 16 16 16 16 16 16 16 17 17 17 17 17 17 17
19 22 24 23 22 22 22 22 22 22 22 21 21 20 18 17 17 17 16 17 17 16 16 16 17 17 17 17 17 17 16 16 16 16 16 16 16 16 16 16 16 16 16 16 16 16 16 17 17
21 23 24 23 22 22 22 21 22 22 21 21 21 20 18 17 17 17 16 16 17 16 16 16 17 17 16 17 16 16 16 16 16 16 16 16 16 16 16 16 16 16 16 16 16 16 16 16 17
22 23 23 23 22 22 22 21 22 22 22 21 20 20 18 17 17 16 16 17 16 16 16 16 16 16 16 16 16 16 16 16 16 16 16 16 16 16 16 16 16 16 16 16 16 16 16 16 16
21 23 23 23 22 22 22 21 21 21 21 20 20 20 18 17 16 16 17 17 17 16 16 16 16 16 16 16 16 16 16 16 16 16 16 16 16 15 15 15 16 16 16 16 16 16 16 16 16
20 23 22 22 22 22 21 21 20 20 20 19 19 19 18 17 17 17 17 17 17 16 16 17 16 16 16 16 16 16 16 16 16 16 15 15 15 15 15 15 16 16 16 16 16 16 16 16 16
22 22 22 22 22 22 21 21 21 21 20 19 18 17 17 17 17 17 17 17 17 17 17 17 16 16 16 16 16 16 16 15 15 15 15 15 15 15 15 15 15 15 15 16 16 16 16 16 16
22 21 21 21 21 21 21 21 20 21 21 20 18 17 17 17 17 17 17 17 17 17 16 16 16 16 16 16 16 16 16 15 15 15 15 15 15 15 15 15 15 15 15 15 15 16 15 16 16
22 21 21 21 20 21 21 20 20 20 20 19 18 18 17 17 17 17 17 17 17 17 16 16 16 16 16 16 16 16 16 16 15 15 15 15 15 15 15 15 15 15 15 15 15 15 15 16 16
22 21 20 20 20 20 20 20 20 19 18 18 18 17 17 17 17 17 17 17 17 17 16 16 16 16 16 16 16 16 15 15 15 15 15 15 15 15 15 15 15 15 15 15 15 15 15 15 16
21 21 21 20 20 20 20 20 19 18 18 18 18 18 18 18 18 18 17 17 17 17 16 16 16 16 16 16 16 15 15 15 15 15 15 15 15 15 15 15 15 15 15 15 15 15 15 15 15
21 22 21 21 21 20 21 20 20 18 18 18 18 18 18 18 17 18 18 17 17 17 17 16 16 16 16 16 15 15 15 15 15 15 15 15 15 15 15 15 15 15 15 15 15 15 15 15 15
22 22 21 21 21 21 21 20 20 18 18 18 18 18 18 17 18 18 17 17 17 17 17 16 16 16 16 15 15 15 15 15 15 15 15 15 15 15 15 15 15 15 15 15 15 15 15 15 15
22 22 21 21 21 21 21 20 20 18 19 19 19 19 18 18 18 17 17 17 17 17 17 16 16 16 16 15 15 15 15 15 15 15 15 15 15 15 15 15 15 15 15 15 15 15 15 15 15
21 22 21 21 21 21 21 21 21 19 19 19 19 19 19 18 18 18 17 17 17 17 16 16 16 16 16 15 15 15 15 15 15 14 15 15 15 15 15 15 15 15 15 15 15 15 15 15 15
22 22 21 21 21 21 21 21 21 20 20 20 20 20 19 19 18 18 17 17 17 16 16 16 16 16 15 15 15 15 15 15 14 14 14 15 14 14 14 15 15 15 15 15 15 15 15 15 15
22 21 21 21 21 21 21 21 22 21 20 20 20 20 20 19 18 17 17 17 17 16 16 16 16 16 15 15 15 15 15 15 15 14 14 15 14 14 14 14 14 15 15 15 15 15 14 14 15
22 22 21 21 21 21 21 21 21 21 20 20 20 20 20 19 19 18 17 17 17 16 16 16 16 16 15 15 15 15 15 15 15 14 14 14 14 14 14 14 14 14 14 14 14 14 14 14 14
21 22 21 21 21 21 21 21 22 22 21 21 20 20 19 19 18 18 17 17 17 16 16 16 16 16 16 15 15 15 15 15 15 14 14 14 14 14 14 14 14 14 14 14 14 14 14 14 14
21 21 21 21 21 21 21 21 22 22 21 21 21 20 20 19 19 18 17 17 17 16 16 16 16 16 16 15 15 15 15 15 15 14 14 14 14 14 14 14 14 14 14 14 14 14 14 14 14
21 21 21 21 22 21 22 22 22 22 22 22 22 21 20 19 19 18 17 17 17 16 16 16 16 16 16 15 15 15 15 15 15 14 14 14 14 14 14 14 14 14 14 14 14 14 14 14 14
21 21 21 21 21 21 22 21 22 23 23 22 22 21 20 19 19 18 17 17 17 17 16 16 16 16 16 16 15 15 15 15 15 14 14 14 14 14 14 14 14 14 14 14 14 14 14 14 14
22 22 21 21 21 21 21 22 23 23 22 21 21 20 20 19 18 18 17 17 17 17 16 16 16 16 16 16 15 15 15 15 15 15 14 14 14 14 14 14 14 14 14 13 14 14 14 14 14
22 22 23 22 22 21 22 22 22 22 22 21 21 20 19 19 18 18 17 17 17 17 17 16 16 16 16 16 16 15 15 15 15 14 14 14 14 14 14 14 13 13 14 13 13 13 13 13 13
22 23 22 22 21 21 22 22 22 22 22 22 21 20 20 19 18 18 17 17 17 17 17 16 16 16 16 16 15 15 15 15 15 14 14 14 14 14 14 14 13 13 13 13 13 13 13 13 13
22 22 22 22 22 21 21 22 23 23 22 22 21 21 20 19 18 18 17 17 17 17 17 16 16 16 16 15 15 15 15 15 15 14 14 14 14 13 13 13 13 13 13 13 13 13 13 13 13
23 23 22 22 22 22 22 22 23 23 22 21 21 20 20 19 18 18 17 17 17 17 17 16 16 16 16 16 15 15 15 15 15 14 14 14 13 13 13 13 13 13 13 13 13 13 13 13 12
Wind_Speed
1 1 2 2 3 2 4 4 4 5 4 5 6 6 7 7 5 6 4 5 7 8 9 11 11 12 13 13 13 13 13 13 12 11 11 10 10 9 9 9 9 9 9 8 8 8 7 7 7
2 1 2 2 2 4 5 5 6 7 6 6 6 7 7 8 7 7 5 6 7 9 10 12 12 12 13 13 13 13 13 13 12 11 10 10 9 9 9 9 9 9 9 8 8 7 7 7 7
1 2 2 1 1 3 5 6 8 8 7 4 5 6 5 6 6 5 6 7 9 10 11 13 12 13 13 13 13 13 13 12 11 11 10 10 9 9 10 10 9 8 8 8 8 7 7 6 6
2 2 1 2 6 5 5 6 7 8 6 5 6 7 6 6 4 7 9 9 11 11 12 13 12 12 12 12 12 12 12 11 11 11 10 10 10 10 9 9 9 8 8 8 8 7 7 7 7
2 2 3 5 6 5 5 4 5 6 5 6 7 9 7 6 9 10 10 10 11 11 12 13 13 13 12 12 11 12 12 11 11 11 10 10 9 9 9 9 8 8 8 8 8 7 7 7 7
1 2 4 6 7 6 5 4 6 8 9 8 9 9 7 7 9 9 10 10 10 10 11 13 13 13 12 11 11 11 11 11 11 11 10 10 9 9 9 8 8 8 7 7 7 7 6 6 7
1 1 4 7 8 7 5 5 6 7 8 7 6 8 7 8 8 9 10 10 10 10 10 11 11 12 12 12 11 10 10 10 10 9 9 9 9 9 8 7 7 8 8 8 7 7 7 7 7
1 2 6 6 7 6 5 5 6 6 7 6 4 6 8 9 9 9 9 10 9 9 9 9 9 9 9 10 11 10 10 9 9 8 8 7 7 7 6 6 7 7 8 7 7 7 6 6 6
1 3 5 5 5 6 6 6 5 5 8 6 5 8 11 12 11 10 9 9 9 8 7 8 8 8 8 8 9 8 9 7 6 8 7 3 5 6 6 9 7 7 7 7 7 6 5 4 5
0 3 5 4 4 6 6 6 5 6 9 9 11 12 13 11 10 10 9 9 9 8 7 6 6 6 7 6 6 6 6 6 6 6 6 5 6 6 6 8 7 7 6 6 6 4 2 1 3
3 5 6 5 6 6 6 6 4 6 7 10 13 14 12 11 10 9 9 8 7 7 6 6 6 6 6 5 5 5 5 5 6 6 6 5 5 5 5 4 5 5 3 5 4 2 4 4 4
6 7 6 6 5 5 6 6 6 5 6 9 13 14 12 11 10 9 9 8 7 7 6 6 6 6 6 6 6 5 5 5 5 5 5 5 4 4 5 4 5 4 4 4 4 3 5 5 5
8 7 8 7 7 7 7 7 7 7 8 11 13 13 12 10 9 8 8 8 8 7 7 7 5 5 6 6 5 5 5 5 6 5 5 5 4 4 4 4 4 4 4 3 3 4 5 5 5
8 9 9 7 7 6 8 7 6 6 9 11 12 11 10 9 9 8 8 8 8 7 7 7 6 5 5 5 5 5 5 4 5 5 5 5 5 4 4 4 4 4 4 4 4 4 4 4 5
9 10 8 5 5 6 7 6 6 8 10 11 10 9 9 8 8 8 8 7 8 8 8 7 5 5 6 6 6 5 4 5 5 5 5 6 5 5 5 4 4 4 4 4 3 4 4 4 5
6 5 4 3 3 4 4 6 7 9 10 9 9 9 8 8 8 7 7 7 7 7 8 7 5 5 5 5 5 5 5 5 5 5 5 6 6 6 5 4 4 4 4 3 3 3 4 4 4
4 5 5 4 3 3 4 6 7 8 9 9 9 9 9 9 8 7 7 7 7 7 7 7 6 5 5 5 5 5 6 6 6 6 6 5 6 6 6 5 4 5 4 3 3 3 3 4 4
5 5 4 4 3 4 5 5 7 8 9 9 10 10 9 9 8 8 7 7 7 7 7 7 6 6 6 5 5 5 5 5 6 6 6 6 6 6 5 5 5 5 4 4 3 4 4 3 3
4 5 4 3 3 4 4 4 5 7 9 10 10 10 10 9 8 8 8 8 8 8 7 7 6 6 5 4 4 4 4 4 5 5 6 6 6 6 6 5 5 5 5 4 4 3 3 3 2
6 5 4 4 3 3 3 3 5 6 9 10 10 10 10 9 9 9 9 9 9 8 7 7 6 6 5 3 4 3 4 3 4 5 6 6 6 6 5 5 5 5 4 4 5 4 2 3 2
5 4 4 4 4 3 2 3 5 6 7 8 9 10 10 11 11 11 10 10 9 9 8 6 6 6 5 5 4 4 4 4 4 4 4 5 6 6 6 6 5 5 4 4 4 3 3 3 3
4 3 5 5 4 2 3 2 4 7 8 9 10 10 11 12 11 11 11 11 10 9 7 7 7 6 6 5 4 5 4 4 3 3 4 4 5 6 6 5 5 5 5 5 4 4 3 3 3
3 4 5 4 3 3 3 3 3 6 8 9 11 12 12 12 12 12 12 11 10 9 8 7 7 6 6 5 5 4 4 4 4 4 4 4 5 5 6 5 5 5 5 5 5 5 4 4 4
7 6 4 3 4 4 3 4 3 5 7 8 10 11 12 12 12 12 11 10 9 9 8 7 7 7 6 6 6 5 5 5 5 4 4 3 3 4 5 5 5 5 5 5 5 5 6 5 5
7 5 3 4 4 2 2 4 3 3 4 6 9 10 11 12 12 12 12 12 11 10 9 8 8 7 7 7 6 5 5 5 5 4 4 3 3 3 4 4 4 5 5 5 5 5 5 6 5
7 6 3 1 2 2 3 4 1 2 3 5 7 9 10 12 12 13 13 12 12 11 10 9 9 8 7 6 6 5 5 4 4 3 3 3 3 3 3 4 4 5 5 5 5 4 5 4 5
6 5 3 2 2 2 3 2 2 3 4 6 7 8 10 11 12 13 13 12 12 11 11 10 9 8 7 7 6 5 5 5 5 5 4 3 3 3 4 4 4 4 4 4 4 4 4 4 4
3 3 4 4 2 2 2 3 2 5 6 6 7 9 10 11 12 13 12 13 12 11 10 10 9 8 7 7 6 5 6 5 5 5 5 4 4 4 4 4 4 4 4 4 4 4 4 4 4
6 6 5 3 3 3 2 1 2 3 5 6 7 8 9 11 12 12 12 12 11 11 11 10 9 9 8 8 7 7 6 6 6 5 5 4 4 4 4 4 4 4 4 4 4 4 4 3 4
7 6 7 5 4 3 3 0 3 2 4 6 6 7 9 10 11 12 12 12 11 11 11 10 10 9 8 8 8 7 7 6 6 5 5 4 4 4 4 4 4 4 3 3 3 3 3 3 3
Wind_Direction
301 183 212 227 212 152 100 90 102 108 89 76 76 79 79 57 46 86 97 95 98 105 108 106 102 103 103 100 98 97 96 97 97 95 94 93 92 90 87 82 78 76 75 74 75 75 74 74 69
313 238 227 234 216 138 104 99 97 88 104 102 82 78 77 70 65 92 101 100 107 105 104 99 101 102 102 99 96 94 93 91 91 90 88 87 86 84 80 76 72 71 69 66 67 72 72 70 65
197 248 252 209 132 103 110 107 104 99 103 99 90 68 64 73 80 91 102 114 108 103 101 98 100 101 100 98 96 96 94 91 90 89 87 86 85 81 77 75 71 67 65 62 61 65 69 67 64
228 212 210 138 106 76 96 115 123 118 95 83 102 88 78 64 70 100 114 115 109 105 101 98 97 100 99 97 95 94 92 89 87 87 86 86 84 81 77 75 73 68 64 62 61 62 66 65 63
241 227 156 126 105 93 88 100 130 119 108 101 103 100 88 75 93 105 113 112 110 106 103 101 92 91 91 91 94 93 90 88 85 83 80 80 80 76 73 71 69 66 63 61 61 61 64 64 62
222 210 161 138 120 109 95 100 116 107 106 106 108 106 93 103 104 109 113 113 110 109 107 106 98 90 86 84 87 90 88 85 83 80 79 78 77 74 70 66 63 60 59 60 59 60 63 64 61
272 150 137 132 130 123 105 104 104 112 110 101 109 108 113 112 108 117 118 116 113 109 106 105 105 103 98 88 82 84 84 83 81 81 80 76 73 72 68 63 59 58 58 58 60 62 65 68 65
4 140 136 136 138 121 110 109 98 102 101 100 106 117 127 126 123 120 117 116 115 112 107 105 104 101 99 96 85 83 83 82 82 81 80 84 94 89 82 76 63 56 59 59 61 64 67 70 67
267 166 143 133 134 122 126 122 102 101 107 94 83 101 119 126 129 126 123 122 118 114 112 107 103 99 97 93 94 97 96 90 103 98 97 105 84 87 90 63 62 61 63 64 63 65 69 79 99
355 130 107 94 108 124 124 113 121 129 118 111 107 110 122 131 135 133 132 130 126 122 116 110 106 104 100 93 95 87 88 86 76 76 78 73 74 73 74 89 76 70 73 79 70 73 126 212 90
77 99 109 104 104 120 119 107 112 130 123 131 133 133 134 138 140 138 131 125 123 122 115 111 109 103 102 99 90 88 88 85 74 68 77 73 74 81 74 74 87 81 75 66 78 99 71 70 67
102 97 109 112 106 113 113 115 104 89 107 127 132 135 138 143 142 140 133 125 123 117 113 108 105 105 102 98 94 89 84 78 71 65 64 69 66 64 69 67 59 53 56 53 52 58 73 65 68
107 106 102 104 106 110 110 106 101 93 110 126 131 138 141 141 141 137 131 128 124 119 116 109 105 101 102 98 93 87 75 66 74 61 57 68 73 69 69 69 61 53 51 58 61 65 67 66 63
111 112 105 106 110 119 120 114 112 116 132 134 138 143 143 144 145 142 141 136 129 123 120 121 111 100 101 100 94 82 78 75 67 64 61 68 68 63 61 65 57 51 48 46 51 69 71 69 65
127 120 109 103 111 126 129 118 124 138 145 145 148 146 147 150 150 147 143 141 134 130 127 122 113 105 101 97 91 82 75 73 70 66 63 68 62 61 62 61 62 55 52 54 51 66 71 77 81
148 147 133 116 123 151 172 135 135 151 155 156 156 153 157 156 156 149 149 146 142 140 134 127 121 110 105 101 101 90 80 77 75 70 64 64 63 62 59 58 57 54 53 57 63 63 75 80 77
175 153 132 134 140 163 170 144 149 165 169 167 168 163 162 160 160 157 158 154 150 147 140 134 124 118 113 108 106 93 88 80 74 70 63 60 62 62 66 52 46 53 53 55 60 64 69 76 76
161 148 137 135 140 158 154 152 157 170 181 180 174 169 167 166 165 160 159 156 153 149 147 140 134 136 128 127 117 104 92 85 77 70 64 60 63 61 62 61 52 50 55 52 58 66 69 72 79
148 146 134 119 139 160 162 166 172 175 188 188 181 177 173 170 166 160 162 162 157 153 152 149 150 147 143 136 132 121 108 97 85 72 66 64 63 61 60 56 55 48 55 49 54 64 79 70 69
163 150 139 126 141 174 174 192 187 188 197 196 188 182 180 174 169 166 168 170 167 161 159 159 158 155 147 136 132 126 112 100 86 77 69 61 58 56 58 59 63 60 62 57 52 53 57 68 35
175 173 157 147 140 169 198 197 181 186 197 199 200 192 187 184 180 174 173 172 170 169 167 166 165 159 154 148 138 136 128 125 113 96 79 59 58 58 55 57 59 58 60 59 53 51 47 55 51
177 162 161 167 188 185 226 212 188 190 195 200 201 195 191 189 186 181 178 175 175 174 170 170 168 162 161 163 156 149 142 130 111 101 96 86 70 66 59 60 61 61 61 62 55 53 52 43 53
139 143 164 186 210 220 218 241 179 187 201 204 203 198 192 189 187 185 183 178 177 174 172 172 167 163 163 167 158 162 147 131 122 119 112 96 77 67 65 62 63 65 63 61 57 54 47 51 43
136 143 149 189 225 228 206 235 200 190 208 202 197 195 191 187 185 184 179 176 176 173 171 171 168 163 166 171 168 164 148 143 135 132 122 109 93 78 72 67 67 66 64 62 59 63 60 56 54
175 187 193 200 207 204 166 237 226 185 200 200 193 189 185 182 181 180 177 175 176 175 174 173 170 170 173 173 171 164 159 157 148 142 133 120 102 90 80 76 73 70 68 67 66 68 65 62 58
196 227 254 248 203 175 196 236 183 140 181 188 188 181 178 180 181 180 178 178 177 177 178 178 175 173 172 173 170 168 161 161 146 141 131 124 108 96 91 88 80 77 74 73 71 69 65 60 58
197 222 277 285 259 252 218 224 220 168 177 176 178 176 179 180 181 180 179 178 178 179 179 180 178 176 174 172 168 166 161 154 147 143 130 121 114 108 105 98 93 86 78 72 73 69 67 58 52
244 201 213 239 246 239 222 225 203 175 181 183 182 180 179 180 179 178 178 179 179 177 177 178 179 178 176 169 165 161 160 153 148 142 135 130 120 118 115 105 100 97 91 84 77 73 62 65 63
185 201 224 241 264 271 250 134 110 182 187 189 187 184 180 178 176 175 176 178 178 175 175 177 177 176 172 168 165 161 156 152 150 145 139 138 133 133 127 115 109 103 99 93 89 76 69 59 61
223 223 220 235 233 248 274 261 103 190 190 189 188 182 177 174 172 171 172 175 177 177 177 177 176 174 172 170 166 160 155 154 155 148 144 143 140 138 131 122 116 109 104 93 84 76 67 60 57
Height
1516 1516 1517 1519 1517 1515 1519 1520 1518 1521 1523 1526 1527 1527 1528 1531 1534 1542 1543 1542 1543 1543 1544 1544 1545 1546 1546 1546 1547 1547 1548 1548 1548 1549 1549 1549 1549 1549 1549 1549 1549 1549 1549 1549 1549 1549 1549 1549 1548
1517 1517 1519 1518 1514 1519 1524 1521 1522 1523 1527 1528 1529 1530 1531 1535 1538 1541 1542 1543 1544 1545 1546 1546 1546 1547 1548 1548 1548 1549 1549 1549 1550 1550 1550 1550 1550 1551 1550 1550 1550 1550 1550 1550 1550 1550 1550 1550 1549
1517 1517 1519 1515 1515 1518 1523 1522 1524 1527 1529 1529 1531 1533 1535 1539 1541 1542 1544 1545 1546 1547 1548 1548 1548 1549 1550 1550 1551 1551 1551 1551 1551 1551 1551 1552 1552 1551 1551 1551 1551 1551 1551 1551 1551 1551 1551 1551 1550
1518 1519 1519 1515 1520 1521 1522 1524 1526 1527 1529 1531 1532 1535 1540 1543 1543 1544 1545 1547 1548 1549 1550 1549 1550 1551 1551 1552 1552 1552 1553 1553 1553 1553 1553 1553 1553 1553 1553 1552 1552 1552 1552 1551 1551 1551 1551 1551 1551
1518 1518 1516 1519 1522 1524 1524 1526 1527 1527 1530 1532 1533 1537 1542 1545 1545 1546 1547 1549 1550 1551 1552 1552 1552 1553 1553 1554 1554 1554 1554 1554 1554 1554 1554 1554 1554 1553 1553 1553 1553 1553 1552 1552 1552 1552 1552 1552 1552
1520 1516 1517 1521 1524 1525 1527 1528 1528 1529 1531 1534 1536 1538 1544 1546 1547 1548 1549 1551 1552 1553 1554 1554 1554 1555 1555 1555 1555 1555 1556 1556 1556 1556 1555 1555 1555 1555 1555 1554 1554 1554 1553 1553 1553 1553 1553 1553 1553
1519 1515 1518 1521 1525 1526 1528 1529 1529 1530 1532 1536 1538 1540 1545 1547 1548 1550 1551 1553 1554 1555 1556 1557 1558 1558 1557 1557 1557 1557 1558 1557 1557 1557 1557 1556 1556 1556 1556 1556 1555 1555 1554 1554 1553 1554 1553 1553 1553
1520 1518 1520 1522 1525 1528 1530 1531 1532 1533 1536 1539 1540 1541 1545 1548 1549 1551 1553 1555 1556 1558 1558 1559 1560 1560 1561 1560 1559 1559 1559 1559 1559 1559 1558 1558 1558 1557 1557 1557 1556 1556 1555 1555 1555 1554 1554 1554 1554
1520 1519 1522 1524 1526 1529 1531 1532 1535 1536 1537 1540 1541 1543 1546 1549 1551 1553 1555 1557 1558 1559 1560 1561 1562 1562 1562 1563 1562 1562 1562 1561 1561 1561 1560 1560 1561 1561 1560 1558 1558 1557 1557 1556 1556 1555 1555 1555 1555
1520 1521 1525 1526 1527 1529 1531 1533 1535 1536 1538 1541 1544 1546 1548 1551 1553 1555 1556 1558 1560 1561 1562 1563 1563 1564 1564 1564 1564 1564 1564 1564 1564 1563 1562 1562 1562 1562 1561 1559 1559 1558 1558 1557 1557 1556 1556 1557 1557
1522 1524 1527 1529 1530 1531 1532 1534 1536 1536 1538 1541 1544 1547 1550 1552 1555 1556 1558 1559 1561 1562 1563 1564 1564 1565 1565 1566 1566 1566 1566 1565 1565 1565 1564 1563 1563 1563 1563 1562 1562 1561 1560 1560 1559 1559 1559 1559 1557
1524 1527 1529 1531 1532 1533 1534 1536 1537 1538 1541 1543 1546 1548 1551 1554 1556 1558 1559 1561 1562 1563 1564 1565 1566 1566 1567 1567 1567 1567 1567 1567 1567 1566 1566 1565 1565 1565 1564 1564 1563 1563 1562 1561 1561 1560 1560 1560 1560
1526 1529 1531 1533 1534 1535 1536 1537 1539 1542 1544 1545 1548 1551 1553 1555 1557 1559 1560 1562 1563 1564 1565 1565 1566 1568 1568 1568 1568 1568 1568 1568 1568 1566 1567 1567 1566 1566 1566 1565 1564 1564 1563 1563 1562 1562 1562 1561 1561
1529 1530 1533 1534 1535 1536 1537 1539 1541 1544 1546 1547 1549 1552 1554 1556 1558 1560 1561 1563 1564 1565 1566 1566 1568 1568 1569 1569 1570 1569 1569 1568 1568 1568 1568 1568 1568 1568 1567 1567 1565 1565 1564 1564 1564 1564 1563 1563 1562
1530 1531 1534 1535 1536 1538 1538 1541 1543 1545 1547 1549 1551 1553 1555 1557 1559 1560 1562 1564 1565 1566 1567 1568 1569 1570 1570 1570 1570 1570 1570 1570 1570 1569 1570 1569 1569 1569 1568 1568 1567 1566 1566 1566 1565 1565 1564 1563 1563
1529 1531 1535 1536 1537 1538 1540 1544 1544 1546 1548 1549 1551 1553 1555 1557 1559 1561 1563 1564 1566 1567 1568 1569 1570 1571 1571 1571 1571 1572 1572 1571 1571 1570 1570 1571 1570 1570 1569 1569 1568 1568 1567 1566 1566 1565 1565 1565 1564
1529 1532 1535 1536 1536 1537 1537 1541 1544 1547 1548 1549 1551 1553 1555 1558 1560 1561 1563 1565 1566 1568 1569 1570 1571 1571 1571 1571 1572 1573 1573 1572 1572 1572 1572 1572 1571 1571 1570 1569 1569 1569 1568 1568 1567 1566 1566 1566 1565
1532 1531 1534 1536 1536 1536 1537 1539 1542 1545 1547 1548 1550 1552 1554 1557 1559 1561 1563 1564 1566 1568 1569 1571 1571 1572 1572 1573 1574 1574 1574 1574 1573 1573 1573 1572 1572 1572 1571 1571 1570 1569 1569 1568 1568 1567 1567 1566 1566
1527 1531 1534 1535 1536 1536 1537 1538 1540 1542 1545 1546 1548 1550 1553 1556 1559 1561 1563 1564 1566 1568 1570 1571 1572 1572 1573 1574 1575 1575 1575 1575 1575 1574 1574 1573 1573 1573 1572 1572 1571 1570 1570 1569 1569 1568 1568 1567 1567
1529 1532 1535 1536 1536 1536 1536 1537 1537 1540 1542 1544 1545 1548 1551 1555 1557 1560 1562 1564 1566 1568 1570 1571 1572 1573 1573 1574 1575 1575 1575 1576 1575 1575 1575 1575 1574 1574 1574 1573 1572 1571 1570 1570 1569 1569 1569 1568 1568
1529 1531 1533 1536 1537 1536 1538 1538 1536 1538 1541 1543 1545 1547 1550 1553 1556 1558 1561 1563 1565 1567 1569 1570 1572 1572 1573 1574 1575 1575 1576 1576 1577 1577 1576 1576 1575 1575 1574 1574 1573 1573 1572 1571 1570 1570 1570 1570 1569
1532 1530 1532 1535 1537 1538 1538 1542 1535 1534 1537 1540 1542 1545 1548 1551 1554 1557 1559 1562 1564 1567 1568 1570 1571 1572 1573 1574 1575 1576 1577 1577 1577 1577 1577 1577 1576 1576 1575 1575 1574 1574 1573 1572 1572 1571 1571 1570 1570
1530 1531 1532 1534 1535 1536 1536 1538 1534 1532 1535 1535 1538 1542 1545 1548 1552 1555 1558 1560 1563 1566 1567 1569 1570 1572 1573 1574 1575 1576 1577 1577 1578 1578 1578 1578 1577 1577 1576 1576 1575 1575 1574 1573 1573 1572 1572 1571 1571
1531 1533 1534 1533 1533 1541 1535 1537 1535 1528 1529 1531 1534 1538 1542 1546 1549 1553 1556 1559 1562 1564 1566 1568 1569 1571 1572 1573 1575 1576 1577 1577 1578 1578 1579 1579 1578 1578 1577 1577 1576 1576 1575 1575 1574 1573 1573 1572 1572
1531 1534 1541 1542 1541 1538 1532 1535 1531 1523 1526 1528 1532 1535 1539 1543 1547 1550 1553 1556 1559 1562 1564 1567 1568 1570 1571 1573 1574 1575 1576 1577 1578 1578 1579 1579 1579 1579 1578 1578 1577 1577 1576 1576 1575 1575 1574 1574 1573
1528 1529 1538 1543 1541 1536 1533 1533 1524 1523 1526 1529 1531 1534 1537 1541 1544 1548 1551 1554 1557 1560 1563 1565 1567 1569 1571 1572 1574 1575 1576 1577 1577 1578 1578 1579 1579 1579 1579 1578 1578 1578 1577 1577 1576 1576 1576 1575 1575
1528 1527 1524 1529 1532 1536 1530 1526 1523 1523 1525 1527 1530 1532 1535 1538 1542 1546 1549 1552 1555 1558 1561 1564 1566 1568 1570 1571 1573 1574 1575 1576 1577 1577 1578 1578 1579 1579 1579 1579 1579 1579 1578 1578 1578 1577 1577 1576 1576
1524 1523 1527 1530 1538 1538 1531 1527 1524 1522 1523 1525 1527 1530 1533 1536 1540 1543 1547 1550 1554 1557 1560 1563 1565 1567 1569 1570 1572 1573 1574 1575 1576 1577 1577 1578 1578 1579 1579 1579 1579 1579 1579 1579 1578 1578 1578 1577 1576
1526 1527 1525 1526 1527 1534 1535 1527 1515 1517 1519 1522 1525 1528 1531 1534 1538 1541 1545 1549 1552 1556 1558 1561 1564 1566 1568 1569 1571 1572 1573 1574 1575 1576 1577 1577 1578 1579 1579 1579 1580 1580 1580 1580 1579 1579 1578 1578 1578
1519 1519 1521 1529 1529 1527 1529 1526 1514 1516 1518 1521 1524 1527 1530 1533 1536 1539 1543 1547 1550 1553 1557 1559 1562 1564 1566 1568 1570 1571 1573 1574 1575 1576 1576 1577 1578 1579 1579 1579 1580 1580 1580 1580 1580 1579 1579 1578 1578